QPF
0.12 0.14 0.12 0.14 0.15 0.18 0.24 0.29 0.24 0.21 0.24 0.24 0.18 0.13 0.11 0.11 0.11 0.11 0.11 0.09 0.14 0.13 0.13 0.15 0.16 0.19 0.21 0.19 0.17 0.14 0.11 0.09 0.06 0.04 0.03 0.03 0.04 0.03 0.01 0.00 0.00 0.00 0.00
0.20 0.21 0.20 0.19 0.16 0.17 0.17 0.18 0.16 0.15 0.17 0.19 0.13 0.11 0.12 0.14 0.11 0.09 0.08 0.06 0.09 0.10 0.11 0.14 0.17 0.20 0.21 0.21 0.18 0.15 0.12 0.09 0.07 0.05 0.03 0.02 0.02 0.03 0.03 0.02 0.01 0.01 0.00
0.21 0.24 0.22 0.17 0.12 0.11 0.10 0.10 0.10 0.09 0.08 0.08 0.07 0.09 0.10 0.08 0.09 0.08 0.05 0.04 0.03 0.05 0.07 0.09 0.12 0.17 0.19 0.19 0.18 0.15 0.13 0.11 0.09 0.06 0.04 0.02 0.02 0.02 0.04 0.05 0.05 0.03 0.02
0.22 0.21 0.16 0.10 0.07 0.06 0.05 0.05 0.04 0.03 0.04 0.04 0.04 0.04 0.04 0.03 0.04 0.03 0.02 0.02 0.02 0.02 0.03 0.06 0.09 0.13 0.18 0.19 0.19 0.19 0.17 0.15 0.12 0.09 0.06 0.04 0.02 0.01 0.02 0.04 0.05 0.06 0.04
0.15 0.11 0.07 0.05 0.03 0.02 0.02 0.02 0.01 0.01 0.02 0.02 0.02 0.03 0.03 0.02 0.02 0.01 0.01 0.01 0.01 0.01 0.02 0.02 0.04 0.07 0.12 0.20 0.21 0.21 0.20 0.15 0.12 0.11 0.10 0.09 0.06 0.03 0.02 0.02 0.03 0.05 0.05
0.12 0.07 0.04 0.02 0.01 0.01 0.01 0.00 0.00 0.00 0.01 0.01 0.01 0.01 0.02 0.02 0.01 0.00 0.00 0.00 0.00 0.01 0.01 0.02 0.02 0.03 0.06 0.11 0.12 0.15 0.16 0.15 0.13 0.13 0.14 0.14 0.12 0.09 0.05 0.03 0.02 0.03 0.04
0.11 0.06 0.02 0.01 0.00 0.00 0.00 0.00 0.00 0.00 0.00 0.00 0.00 0.00 0.00 0.00 0.00 0.00 0.00 0.00 0.00 0.01 0.00 0.01 0.01 0.01 0.01 0.03 0.05 0.08 0.11 0.15 0.15 0.14 0.14 0.14 0.15 0.14 0.10 0.07 0.04 0.02 0.03
0.09 0.06 0.03 0.01 0.00 0.00 0.00 0.00 0.00 0.00 0.00 0.00 0.00 0.00 0.00 0.00 0.00 0.00 0.00 0.00 0.00 0.00 0.00 0.00 0.00 0.00 0.01 0.01 0.01 0.03 0.07 0.10 0.14 0.15 0.14 0.14 0.15 0.16 0.15 0.13 0.10 0.06 0.04
0.07 0.05 0.03 0.01 0.00 0.00 0.00 0.00 0.00 0.00 0.00 0.00 0.00 0.00 0.00 0.00 0.00 0.00 0.00 0.00 0.00 0.00 0.00 0.00 0.00 0.00 0.00 0.00 0.00 0.01 0.02 0.04 0.09 0.13 0.16 0.16 0.14 0.12 0.13 0.14 0.13 0.10 0.08
0.08 0.06 0.04 0.02 0.01 0.00 0.00 0.00 0.00 0.00 0.00 0.00 0.00 0.00 0.00 0.00 0.00 0.00 0.00 0.00 0.00 0.00 0.00 0.00 0.00 0.00 0.00 0.00 0.00 0.00 0.01 0.02 0.05 0.09 0.14 0.17 0.16 0.13 0.11 0.12 0.14 0.14 0.10
0.15 0.12 0.10 0.06 0.04 0.02 0.01 0.00 0.00 0.00 0.00 0.00 0.00 0.00 0.00 0.00 0.00 0.00 0.00 0.00 0.00 0.00 0.00 0.00 0.00 0.00 0.00 0.01 0.01 0.01 0.01 0.02 0.03 0.06 0.09 0.12 0.16 0.17 0.16 0.14 0.15 0.17 0.16
0.19 0.18 0.16 0.15 0.12 0.09 0.06 0.02 0.01 0.00 0.00 0.00 0.00 0.00 0.00 0.00 0.00 0.00 0.00 0.00 0.00 0.00 0.00 0.00 0.00 0.00 0.00 0.01 0.01 0.02 0.02 0.02 0.03 0.05 0.08 0.11 0.14 0.17 0.19 0.20 0.19 0.18 0.19
0.12 0.14 0.15 0.16 0.16 0.16 0.13 0.07 0.03 0.01 0.00 0.00 0.00 0.00 0.00 0.00 0.00 0.00 0.00 0.00 0.00 0.00 0.00 0.00 0.00 0.00 0.00 0.01 0.02 0.02 0.02 0.03 0.03 0.03 0.05 0.09 0.12 0.13 0.14 0.16 0.16 0.14 0.12
0.05 0.06 0.08 0.10 0.13 0.16 0.17 0.13 0.07 0.03 0.01 0.00 0.00 0.00 0.00 0.00 0.00 0.00 0.00 0.00 0.00 0.00 0.00 0.00 0.00 0.00 0.00 0.01 0.03 0.05 0.04 0.04 0.03 0.03 0.03 0.05 0.07 0.09 0.10 0.10 0.10 0.09 0.07
0.01 0.02 0.04 0.05 0.08 0.11 0.14 0.15 0.11 0.08 0.04 0.01 0.00 0.00 0.00 0.00 0.00 0.00 0.00 0.00 0.01 0.00 0.00 0.00 0.00 0.00 0.00 0.01 0.02 0.04 0.04 0.05 0.05 0.03 0.03 0.04 0.05 0.05 0.06 0.06 0.06 0.05 0.04
0.00 0.01 0.02 0.03 0.05 0.07 0.10 0.12 0.12 0.11 0.07 0.04 0.02 0.01 0.00 0.00 0.00 0.00 0.00 0.00 0.00 0.01 0.01 0.00 0.01 0.00 0.00 0.01 0.02 0.03 0.03 0.04 0.04 0.03 0.03 0.03 0.03 0.04 0.05 0.05 0.04 0.04 0.03
0.00 0.00 0.00 0.01 0.03 0.06 0.09 0.11 0.13 0.13 0.11 0.09 0.06 0.03 0.01 0.01 0.00 0.00 0.00 0.00 0.00 0.01 0.01 0.01 0.01 0.01 0.01 0.01 0.01 0.02 0.02 0.02 0.02 0.03 0.03 0.04 0.03 0.02 0.02 0.03 0.03 0.03 0.02
0.00 0.00 0.00 0.00 0.00 0.02 0.05 0.10 0.15 0.18 0.17 0.14 0.11 0.07 0.04 0.03 0.01 0.00 0.00 0.00 0.00 0.00 0.01 0.01 0.01 0.02 0.02 0.02 0.01 0.02 0.02 0.02 0.01 0.02 0.03 0.03 0.03 0.02 0.01 0.01 0.01 0.01 0.01
0.00 0.00 0.00 0.00 0.00 0.00 0.01 0.03 0.08 0.13 0.18 0.20 0.18 0.13 0.09 0.06 0.03 0.02 0.01 0.00 0.00 0.00 0.01 0.01 0.01 0.02 0.04 0.04 0.03 0.03 0.03 0.02 0.01 0.02 0.02 0.02 0.01 0.01 0.01 0.00 0.00 0.00 0.00
0.00 0.00 0.00 0.00 0.00 0.00 0.00 0.00 0.01 0.04 0.09 0.14 0.18 0.19 0.17 0.11 0.07 0.04 0.02 0.01 0.00 0.00 0.01 0.02 0.02 0.03 0.06 0.06 0.04 0.04 0.04 0.03 0.02 0.01 0.01 0.01 0.01 0.00 0.00 0.00 0.00 0.00 0.00
0.00 0.00 0.00 0.00 0.00 0.00 0.00 0.00 0.00 0.01 0.02 0.05 0.10 0.13 0.16 0.18 0.14 0.08 0.03 0.01 0.00 0.00 0.01 0.02 0.03 0.04 0.06 0.08 0.07 0.05 0.04 0.04 0.03 0.02 0.01 0.00 0.00 0.00 0.00 0.00 0.00 0.00 0.00
0.00 0.00 0.00 0.00 0.00 0.00 0.00 0.00 0.00 0.00 0.00 0.01 0.03 0.07 0.10 0.13 0.13 0.12 0.07 0.03 0.01 0.00 0.01 0.02 0.03 0.03 0.04 0.04 0.03 0.02 0.03 0.03 0.04 0.03 0.01 0.00 0.00 0.00 0.00 0.00 0.00 0.00 0.00
0.00 0.00 0.00 0.00 0.00 0.00 0.00 0.00 0.00 0.00 0.00 0.00 0.01 0.02 0.05 0.09 0.10 0.09 0.08 0.05 0.02 0.01 0.00 0.01 0.02 0.02 0.03 0.02 0.02 0.02 0.03 0.02 0.02 0.02 0.01 0.01 0.00 0.00 0.00 0.00 0.00 0.00 0.00
0.01 0.00 0.00 0.00 0.00 0.00 0.00 0.00 0.00 0.00 0.00 0.00 0.00 0.01 0.02 0.05 0.07 0.08 0.07 0.05 0.03 0.02 0.01 0.01 0.02 0.03 0.03 0.03 0.03 0.03 0.03 0.03 0.02 0.02 0.01 0.01 0.01 0.00 0.00 0.00 0.00 0.00 0.00
0.02 0.01 0.01 0.00 0.00 0.00 0.00 0.00 0.00 0.00 0.00 0.00 0.00 0.01 0.02 0.03 0.06 0.07 0.07 0.04 0.03 0.03 0.02 0.02 0.04 0.06 0.07 0.07 0.06 0.05 0.05 0.04 0.03 0.02 0.01 0.00 0.00 0.00 0.00 0.00 0.00 0.00 0.00
0.04 0.02 0.01 0.01 0.00 0.00 0.00 0.00 0.00 0.00 0.00 0.00 0.00 0.02 0.04 0.05 0.07 0.07 0.07 0.05 0.02 0.02 0.03 0.03 0.06 0.10 0.10 0.10 0.09 0.06 0.05 0.04 0.02 0.02 0.01 0.00 0.00 0.00 0.00 0.00 0.00 0.00 0.00
MSLP
1013.04 1013.15 1013.17 1013.14 1013.06 1012.98 1012.91 1012.87 1012.88 1012.91 1012.98 1013.08 1013.19 1013.31 1013.44 1013.57 1013.69 1013.80 1013.89 1013.95 1013.98 1013.98 1013.97 1013.97 1014.00 1014.09 1014.25 1014.47 1014.76 1015.10 1015.47 1015.87 1016.26 1016.65 1017.04 1017.42 1017.79 1018.15 1018.50 1018.84 1019.16 1019.47 1019.76
1012.40 1012.57 1012.66 1012.67 1012.64 1012.58 1012.52 1012.49 1012.49 1012.53 1012.60 1012.69 1012.81 1012.93 1013.05 1013.17 1013.27 1013.35 1013.40 1013.44 1013.45 1013.46 1013.47 1013.50 1013.56 1013.68 1013.84 1014.06 1014.33 1014.64 1014.98 1015.35 1015.73 1016.12 1016.52 1016.93 1017.34 1017.74 1018.12 1018.48 1018.81 1019.13 1019.42
1011.71 1011.94 1012.10 1012.18 1012.21 1012.21 1012.20 1012.20 1012.23 1012.28 1012.36 1012.47 1012.58 1012.69 1012.79 1012.87 1012.92 1012.95 1012.96 1012.95 1012.94 1012.94 1012.96 1013.01 1013.11 1013.25 1013.43 1013.65 1013.90 1014.18 1014.49 1014.83 1015.18 1015.57 1015.98 1016.40 1016.83 1017.25 1017.66 1018.04 1018.39 1018.72 1019.03
1011.04 1011.32 1011.54 1011.70 1011.82 1011.89 1011.95 1012.01 1012.08 1012.17 1012.27 1012.38 1012.49 1012.58 1012.65 1012.68 1012.67 1012.64 1012.58 1012.52 1012.47 1012.45 1012.46 1012.53 1012.64 1012.80 1012.99 1013.21 1013.46 1013.72 1014.00 1014.30 1014.64 1015.00 1015.40 1015.82 1016.26 1016.70 1017.12 1017.52 1017.89 1018.23 1018.56
1010.45 1010.76 1011.03 1011.26 1011.45 1011.61 1011.75 1011.88 1012.01 1012.14 1012.27 1012.39 1012.49 1012.56 1012.60 1012.58 1012.52 1012.42 1012.29 1012.17 1012.07 1012.01 1012.01 1012.06 1012.18 1012.34 1012.54 1012.76 1012.99 1013.24 1013.49 1013.77 1014.08 1014.42 1014.80 1015.21 1015.63 1016.07 1016.49 1016.90 1017.28 1017.64 1017.99
1010.00 1010.29 1010.57 1010.85 1011.10 1011.34 1011.56 1011.76 1011.95 1012.12 1012.28 1012.42 1012.53 1012.59 1012.60 1012.55 1012.45 1012.29 1012.11 1011.93 1011.78 1011.67 1011.62 1011.65 1011.75 1011.89 1012.08 1012.29 1012.51 1012.74 1012.97 1013.22 1013.50 1013.81 1014.16 1014.54 1014.95 1015.36 1015.78 1016.18 1016.56 1016.94 1017.31
1009.71 1009.94 1010.20 1010.48 1010.77 1011.06 1011.33 1011.59 1011.83 1012.05 1012.24 1012.41 1012.53 1012.60 1012.62 1012.56 1012.44 1012.25 1012.04 1011.81 1011.61 1011.45 1011.35 1011.33 1011.38 1011.49 1011.64 1011.82 1012.02 1012.22 1012.42 1012.65 1012.90 1013.18 1013.49 1013.84 1014.21 1014.59 1014.98 1015.37 1015.76 1016.14 1016.53
1009.57 1009.71 1009.92 1010.17 1010.46 1010.76 1011.05 1011.34 1011.61 1011.86 1012.09 1012.28 1012.44 1012.55 1012.59 1012.56 1012.46 1012.28 1012.06 1011.81 1011.56 1011.35 1011.20 1011.11 1011.09 1011.14 1011.23 1011.36 1011.52 1011.68 1011.86 1012.05 1012.27 1012.52 1012.79 1013.10 1013.43 1013.78 1014.14 1014.51 1014.88 1015.27 1015.67
1009.58 1009.61 1009.73 1009.92 1010.17 1010.44 1010.73 1011.01 1011.28 1011.55 1011.79 1012.02 1012.22 1012.38 1012.48 1012.51 1012.46 1012.33 1012.13 1011.89 1011.62 1011.37 1011.15 1010.99 1010.89 1010.85 1010.87 1010.93 1011.03 1011.15 1011.29 1011.45 1011.64 1011.85 1012.10 1012.37 1012.66 1012.97 1013.30 1013.64 1014.00 1014.39 1014.80
1009.69 1009.62 1009.64 1009.75 1009.93 1010.14 1010.37 1010.62 1010.87 1011.12 1011.37 1011.62 1011.86 1012.08 1012.25 1012.37 1012.40 1012.34 1012.20 1011.99 1011.73 1011.45 1011.18 1010.95 1010.76 1010.63 1010.57 1010.55 1010.58 1010.64 1010.74 1010.87 1011.03 1011.22 1011.44 1011.68 1011.94 1012.22 1012.52 1012.84 1013.18 1013.55 1013.96
1009.87 1009.72 1009.65 1009.67 1009.75 1009.88 1010.04 1010.21 1010.40 1010.61 1010.85 1011.11 1011.38 1011.65 1011.91 1012.11 1012.24 1012.27 1012.21 1012.05 1011.82 1011.54 1011.24 1010.95 1010.69 1010.48 1010.33 1010.24 1010.20 1010.22 1010.28 1010.38 1010.52 1010.69 1010.88 1011.10 1011.34 1011.59 1011.86 1012.16 1012.49 1012.84 1013.24
1010.08 1009.86 1009.73 1009.67 1009.66 1009.69 1009.75 1009.84 1009.95 1010.09 1010.29 1010.53 1010.82 1011.13 1011.45 1011.73 1011.95 1012.08 1012.10 1012.02 1011.83 1011.57 1011.27 1010.95 1010.65 1010.38 1010.17 1010.03 1009.94 1009.92 1009.95 1010.03 1010.15 1010.31 1010.49 1010.70 1010.92 1011.15 1011.40 1011.68 1011.98 1012.32 1012.69
1010.24 1010.01 1009.84 1009.71 1009.62 1009.57 1009.53 1009.52 1009.54 1009.61 1009.75 1009.95 1010.23 1010.55 1010.91 1011.25 1011.55 1011.76 1011.87 1011.86 1011.74 1011.53 1011.25 1010.94 1010.63 1010.35 1010.12 1009.95 1009.84 1009.80 1009.82 1009.89 1010.01 1010.16 1010.33 1010.53 1010.73 1010.94 1011.17 1011.42 1011.70 1012.01 1012.36
1010.30 1010.09 1009.91 1009.75 1009.61 1009.48 1009.37 1009.27 1009.20 1009.19 1009.26 1009.41 1009.65 1009.97 1010.33 1010.71 1011.05 1011.33 1011.51 1011.57 1011.52 1011.38 1011.16 1010.90 1010.63 1010.37 1010.16 1010.01 1009.92 1009.89 1009.92 1010.00 1010.12 1010.27 1010.44 1010.62 1010.81 1011.00 1011.20 1011.42 1011.67 1011.94 1012.25
1010.20 1010.02 1009.86 1009.71 1009.56 1009.39 1009.23 1009.07 1008.93 1008.85 1008.85 1008.94 1009.14 1009.42 1009.76 1010.14 1010.50 1010.81 1011.04 1011.17 1011.19 1011.13 1010.99 1010.81 1010.62 1010.45 1010.31 1010.22 1010.18 1010.20 1010.26 1010.37 1010.50 1010.65 1010.82 1010.98 1011.14 1011.30 1011.47 1011.66 1011.86 1012.10 1012.36
1009.87 1009.76 1009.65 1009.53 1009.40 1009.24 1009.05 1008.87 1008.69 1008.57 1008.51 1008.55 1008.69 1008.93 1009.24 1009.58 1009.93 1010.25 1010.51 1010.68 1010.77 1010.79 1010.75 1010.68 1010.60 1010.54 1010.51 1010.52 1010.58 1010.67 1010.80 1010.95 1011.11 1011.27 1011.42 1011.56 1011.70 1011.83 1011.95 1012.09 1012.25 1012.44 1012.66
1009.30 1009.26 1009.22 1009.16 1009.08 1008.96 1008.80 1008.62 1008.45 1008.31 1008.23 1008.23 1008.32 1008.51 1008.76 1009.07 1009.39 1009.69 1009.95 1010.15 1010.30 1010.39 1010.45 1010.49 1010.54 1010.62 1010.72 1010.86 1011.03 1011.23 1011.44 1011.65 1011.85 1012.03 1012.18 1012.30 1012.41 1012.50 1012.58 1012.68 1012.79 1012.93 1013.10
1008.52 1008.54 1008.58 1008.60 1008.59 1008.53 1008.43 1008.30 1008.15 1008.02 1007.94 1007.93 1007.99 1008.14 1008.35 1008.60 1008.88 1009.15 1009.39 1009.60 1009.78 1009.93 1010.07 1010.22 1010.40 1010.61 1010.86 1011.14 1011.45 1011.76 1012.07 1012.36 1012.61 1012.82 1012.99 1013.10 1013.19 1013.24 1013.29 1013.34 1013.41 1013.52 1013.65
1007.59 1007.67 1007.78 1007.88 1007.95 1007.97 1007.94 1007.87 1007.77 1007.68 1007.62 1007.61 1007.67 1007.79 1007.96 1008.17 1008.40 1008.62 1008.83 1009.03 1009.22 1009.40 1009.61 1009.85 1010.13 1010.47 1010.85 1011.27 1011.72 1012.16 1012.58 1012.96 1013.28 1013.55 1013.74 1013.87 1013.95 1013.99 1014.02 1014.04 1014.09 1014.16 1014.28
1006.60 1006.74 1006.91 1007.08 1007.22 1007.32 1007.36 1007.35 1007.31 1007.27 1007.24 1007.26 1007.32 1007.42 1007.57 1007.74 1007.93 1008.11 1008.28 1008.44 1008.61 1008.81 1009.04 1009.34 1009.70 1010.14 1010.64 1011.19 1011.76 1012.33 1012.87 1013.35 1013.77 1014.10 1014.35 1014.53 1014.63 1014.69 1014.72 1014.74 1014.78 1014.84 1014.95
1005.67 1005.84 1006.05 1006.27 1006.47 1006.62 1006.72 1006.76 1006.78 1006.78 1006.79 1006.84 1006.91 1007.02 1007.16 1007.30 1007.45 1007.58 1007.70 1007.83 1007.96 1008.14 1008.38 1008.70 1009.11 1009.61 1010.20 1010.85 1011.53 1012.22 1012.88 1013.49 1014.01 1014.44 1014.78 1015.02 1015.19 1015.29 1015.36 1015.41 1015.46 1015.54 1015.65
1004.87 1005.05 1005.28 1005.53 1005.75 1005.93 1006.06 1006.14 1006.19 1006.23 1006.28 1006.36 1006.45 1006.57 1006.70 1006.83 1006.94 1007.03 1007.11 1007.18 1007.27 1007.41 1007.62 1007.94 1008.36 1008.91 1009.55 1010.28 1011.06 1011.86 1012.63 1013.36 1014.00 1014.54 1014.99 1015.34 1015.59 1015.78 1015.91 1016.01 1016.11 1016.22 1016.35
1004.23 1004.41 1004.64 1004.88 1005.11 1005.29 1005.42 1005.52 1005.59 1005.66 1005.74 1005.84 1005.96 1006.09 1006.22 1006.33 1006.41 1006.47 1006.49 1006.51 1006.55 1006.64 1006.82 1007.11 1007.53 1008.08 1008.77 1009.55 1010.41 1011.29 1012.17 1013.01 1013.77 1014.44 1015.01 1015.47 1015.84 1016.13 1016.35 1016.53 1016.69 1016.84 1017.01
1003.75 1003.91 1004.12 1004.34 1004.54 1004.70 1004.83 1004.92 1005.01 1005.09 1005.19 1005.31 1005.45 1005.59 1005.72 1005.82 1005.88 1005.89 1005.88 1005.84 1005.83 1005.87 1006.01 1006.27 1006.67 1007.23 1007.93 1008.76 1009.66 1010.62 1011.59 1012.52 1013.40 1014.18 1014.87 1015.45 1015.94 1016.33 1016.66 1016.93 1017.16 1017.37 1017.57
1003.36 1003.48 1003.66 1003.84 1004.01 1004.15 1004.26 1004.35 1004.44 1004.54 1004.67 1004.81 1004.96 1005.11 1005.24 1005.33 1005.36 1005.34 1005.29 1005.21 1005.16 1005.16 1005.26 1005.50 1005.89 1006.45 1007.16 1008.01 1008.95 1009.96 1010.99 1012.00 1012.95 1013.83 1014.61 1015.30 1015.89 1016.39 1016.81 1017.16 1017.47 1017.74 1017.99
1002.97 1003.06 1003.19 1003.33 1003.47 1003.59 1003.70 1003.81 1003.92 1004.04 1004.19 1004.35 1004.52 1004.68 1004.80 1004.87 1004.89 1004.84 1004.75 1004.64 1004.56 1004.54 1004.63 1004.86 1005.25 1005.81 1006.53 1007.40 1008.37 1009.40 1010.46 1011.51 1012.52 1013.45 1014.29 1015.05 1015.71 1016.28 1016.78 1017.21 1017.58 1017.91 1018.20
Thickness
5736 5736 5736 5736 5736 5735 5735 5736 5736 5736 5736 5735 5734 5732 5732 5732 5730 5729 5729 5730 5730 5730 5730 5731 5732 5733 5733 5734 5734 5734 5733 5732 5731 5730 5729 5727 5726 5724 5723 5721 5720 5719 5718
5733 5732 5733 5733 5733 5734 5734 5734 5734 5734 5734 5734 5733 5732 5731 5731 5730 5728 5728 5728 5729 5729 5729 5730 5731 5731 5731 5732 5732 5733 5733 5732 5731 5730 5729 5728 5727 5725 5723 5722 5721 5720 5719
5730 5729 5729 5730 5731 5731 5732 5731 5731 5731 5731 5730 5730 5730 5729 5729 5728 5728 5728 5727 5727 5728 5729 5729 5730 5730 5730 5730 5730 5731 5731 5731 5731 5730 5729 5728 5727 5726 5725 5723 5722 5721 5720
5727 5726 5726 5727 5727 5728 5728 5727 5726 5725 5725 5725 5725 5726 5727 5727 5727 5727 5727 5727 5727 5727 5728 5729 5729 5729 5729 5729 5728 5729 5730 5730 5729 5729 5729 5728 5727 5727 5725 5724 5723 5722 5721
5723 5723 5723 5723 5723 5723 5723 5722 5721 5720 5719 5719 5720 5722 5724 5725 5725 5727 5727 5727 5727 5727 5727 5728 5728 5728 5729 5729 5728 5728 5728 5728 5728 5728 5728 5728 5727 5727 5726 5725 5724 5722 5721
5718 5719 5718 5718 5718 5717 5717 5716 5715 5715 5715 5714 5715 5717 5718 5721 5722 5724 5725 5726 5726 5726 5726 5727 5727 5727 5728 5728 5729 5728 5728 5728 5728 5728 5727 5727 5727 5726 5726 5725 5724 5723 5722
5713 5714 5714 5714 5713 5712 5711 5711 5710 5709 5709 5709 5708 5709 5713 5717 5719 5721 5724 5725 5725 5726 5725 5725 5725 5725 5726 5727 5727 5727 5727 5727 5727 5727 5726 5726 5726 5725 5725 5724 5724 5723 5723
5708 5709 5709 5709 5709 5707 5705 5705 5704 5703 5704 5705 5704 5702 5703 5709 5715 5719 5721 5723 5724 5724 5724 5724 5724 5724 5724 5724 5725 5726 5726 5726 5726 5726 5725 5725 5724 5724 5724 5723 5723 5723 5723
5703 5705 5705 5704 5703 5702 5701 5701 5701 5699 5698 5699 5701 5700 5698 5699 5705 5712 5715 5719 5720 5721 5721 5722 5722 5723 5722 5722 5722 5724 5725 5725 5725 5725 5724 5723 5722 5722 5722 5722 5722 5722 5722
5696 5698 5698 5697 5697 5697 5697 5697 5697 5697 5696 5694 5695 5698 5699 5700 5700 5702 5709 5713 5716 5717 5719 5719 5719 5721 5721 5720 5720 5721 5722 5722 5723 5723 5723 5722 5721 5720 5720 5720 5719 5719 5719
5687 5688 5690 5690 5690 5690 5692 5692 5693 5693 5693 5693 5692 5693 5693 5695 5696 5696 5699 5704 5709 5714 5716 5718 5718 5718 5718 5718 5718 5718 5718 5719 5719 5720 5720 5719 5719 5718 5717 5717 5716 5716 5717
5675 5677 5679 5680 5681 5682 5684 5685 5687 5688 5689 5690 5691 5691 5690 5691 5691 5692 5693 5696 5701 5708 5713 5715 5715 5715 5715 5714 5714 5714 5714 5715 5715 5715 5716 5716 5716 5715 5714 5713 5713 5712 5713
5660 5663 5665 5667 5670 5673 5675 5677 5678 5681 5683 5684 5686 5687 5687 5689 5690 5690 5689 5691 5695 5701 5706 5710 5711 5711 5710 5709 5709 5709 5709 5709 5710 5710 5711 5711 5711 5711 5710 5709 5708 5707 5708
5644 5648 5651 5654 5657 5661 5665 5667 5671 5673 5676 5678 5680 5682 5683 5684 5686 5686 5686 5687 5688 5692 5696 5701 5706 5706 5704 5703 5702 5702 5702 5702 5702 5703 5704 5704 5705 5705 5704 5703 5702 5701 5701
5629 5632 5635 5639 5643 5648 5652 5656 5660 5663 5667 5670 5672 5675 5677 5679 5680 5682 5683 5684 5683 5684 5688 5693 5697 5699 5698 5696 5695 5694 5693 5693 5694 5695 5696 5696 5697 5698 5697 5696 5695 5694 5695
5611 5614 5618 5622 5627 5632 5638 5643 5648 5652 5656 5659 5663 5665 5669 5672 5674 5676 5678 5679 5680 5681 5681 5686 5689 5691 5691 5690 5687 5686 5684 5683 5684 5685 5686 5687 5688 5689 5688 5688 5687 5687 5687
5591 5594 5598 5603 5608 5614 5620 5626 5633 5638 5643 5648 5652 5656 5660 5663 5666 5669 5671 5673 5675 5677 5677 5680 5682 5684 5684 5682 5680 5677 5675 5674 5673 5673 5675 5677 5678 5679 5679 5679 5679 5679 5680
5572 5574 5577 5582 5588 5594 5601 5607 5614 5622 5628 5634 5640 5644 5649 5652 5656 5660 5663 5666 5669 5672 5673 5674 5676 5677 5677 5676 5673 5669 5667 5664 5662 5662 5663 5665 5667 5669 5670 5670 5671 5671 5672
5558 5558 5559 5562 5567 5573 5580 5588 5595 5604 5612 5618 5625 5631 5637 5641 5646 5651 5655 5659 5662 5666 5668 5668 5669 5671 5671 5669 5666 5662 5658 5654 5652 5650 5651 5653 5656 5658 5660 5661 5662 5662 5663
5545 5546 5546 5547 5551 5555 5561 5569 5576 5585 5594 5603 5610 5617 5624 5630 5636 5641 5646 5650 5654 5658 5661 5663 5664 5665 5665 5663 5661 5655 5649 5645 5642 5641 5641 5642 5644 5647 5649 5650 5652 5652 5653
5536 5536 5536 5536 5538 5541 5546 5552 5559 5567 5576 5585 5594 5603 5610 5618 5625 5631 5637 5642 5646 5651 5654 5657 5659 5660 5660 5658 5656 5651 5645 5638 5633 5631 5631 5632 5634 5636 5637 5639 5641 5642 5642
5524 5525 5526 5528 5529 5533 5537 5541 5545 5551 5559 5568 5577 5587 5596 5604 5613 5621 5628 5635 5640 5645 5650 5653 5656 5658 5658 5657 5653 5647 5641 5634 5628 5623 5624 5621 5624 5625 5626 5628 5629 5631 5632
5512 5514 5517 5519 5522 5525 5528 5532 5536 5539 5545 5553 5561 5570 5582 5593 5601 5610 5618 5624 5632 5640 5646 5651 5654 5657 5657 5656 5651 5643 5638 5634 5629 5621 5619 5614 5614 5615 5616 5616 5618 5620 5621
5498 5502 5507 5511 5514 5519 5522 5524 5528 5532 5536 5541 5548 5557 5567 5578 5586 5597 5606 5615 5625 5633 5639 5645 5651 5654 5655 5654 5651 5645 5636 5626 5620 5615 5616 5611 5607 5606 5606 5606 5607 5609 5610
5485 5490 5496 5501 5506 5511 5515 5518 5521 5525 5529 5534 5540 5546 5554 5565 5576 5586 5597 5608 5617 5625 5632 5639 5644 5647 5649 5648 5645 5637 5629 5624 5616 5610 5609 5607 5602 5599 5598 5597 5598 5599 5601
5474 5479 5485 5492 5498 5503 5507 5511 5515 5519 5523 5529 5533 5538 5545 5554 5564 5574 5587 5600 5610 5620 5626 5632 5636 5639 5641 5642 5641 5639 5634 5626 5618 5609 5606 5605 5601 5600 5593 5590 5590 5591 5592